Imperial, CA

12:08 AM PDT on May 26, 2017 (GMT -0700)
Imperial County

Weather History for KIPL - March, 2014

Change the Weather History Date:

Monday, March 31, 2014

  Actual Average Record
Temperature  
Mean Temperature 68 °F -  
Max Temperature 84 °F 81 °F 98 °F (2011)
Min Temperature 53 °F 53 °F 42 °F (2009)
Cooling Degree Days 4    
Growing Degree Days 18 (Base 50)    
Moisture  
Dew Point 30 °F    
Average Humidity 28    
Maximum Humidity 48    
Minimum Humidity 7    
Precipitation  
Precipitation 0.00 in - - ()
Sea Level Pressure  
Sea Level Pressure 29.88 in    
Wind  
Wind Speed 12 mph (West)    
Max Wind Speed 29 mph    
Max Gust Speed 41 mph    
Visibility 10 miles    
Events      
Averages and records for this station are not official NWS values.
T = Trace of Precipitation, MM = Missing Value Source: NWS Daily Summary

Daily Weather History Graph

Daily Weather History Graph

Search for Another Location

Airport or City:

Trip Planner

Search our weather history database for the weather conditions in past years. The results will help you decide how hot, cold, wet, or windy it might be!

Date:

Astronomy

Mar. 31, 2014 Rise Set
Actual Time 6:31 AM PDT 7:01 PM PDT
Civil Twilight 6:06 AM PDT 7:26 PM PDT
Nautical Twilight 5:37 AM PDT 7:55 PM PDT
Astronomical Twilight 5:08 AM PDT 8:25 PM PDT
Moon 7:01 AM PDT (3/31) 8:19 PM PDT (3/31)
Length of Visible Light 13h 19m
Length of Day
12h 30m
New Moon, 1% of the Moon is Illuminated
Mar 31
New Moon
Apr 7
First Quarter
Apr 15
Full
Apr 22
Last Quarter
Apr 28
New

Hourly Weather History & Observations

Time (PDT) Temp. Dew Point Humidity Pressure Visibility Wind Dir Wind Speed Gust Speed Precip Events Conditions
12:53 AM 60.1 °F 34.0 °F 38% 29.92 in 10.0 mi West 9.2 mph - N/A   Clear
1:53 AM 59.0 °F 32.0 °F 36% 29.91 in 10.0 mi West 8.1 mph - N/A   Clear
2:53 AM 60.1 °F 32.0 °F 35% 29.90 in 10.0 mi WNW 8.1 mph - N/A   Clear
3:53 AM 59.0 °F 32.0 °F 36% 29.90 in 10.0 mi NW 6.9 mph - N/A   Clear
4:53 AM 57.9 °F 36.0 °F 44% 29.88 in 10.0 mi NW 8.1 mph - N/A   Clear
5:53 AM 57.0 °F 34.0 °F 42% 29.90 in 10.0 mi NW 9.2 mph - N/A   Clear
6:53 AM 53.1 °F 34.0 °F 48% 29.92 in 10.0 mi WNW 11.5 mph - N/A   Clear
7:53 AM 60.1 °F 35.1 °F 39% 29.94 in 10.0 mi WNW 9.2 mph - N/A   Clear
8:53 AM 68.0 °F 32.0 °F 26% 29.94 in 10.0 mi West 6.9 mph - N/A   Clear
9:53 AM 72.0 °F 25.0 °F 17% 29.95 in 10.0 mi West 8.1 mph - N/A   Clear
10:53 AM 75.0 °F 19.0 °F 12% 29.94 in 10.0 mi WNW 5.8 mph - N/A   Clear
11:53 AM 77.0 °F 16.0 °F 10% 29.92 in 10.0 mi Variable 4.6 mph - N/A   Clear
12:53 PM 82.0 °F 10.9 °F 7% 29.89 in 10.0 mi WSW 6.9 mph 16.1 mph N/A   Clear
1:53 PM 82.9 °F 19.0 °F 9% 29.86 in 10.0 mi WSW 19.6 mph 24.2 mph N/A   Clear
2:53 PM 84.0 °F 19.9 °F 9% 29.84 in 10.0 mi SW 18.4 mph 29.9 mph N/A   Clear
3:53 PM 82.0 °F 28.9 °F 14% 29.83 in 10.0 mi WSW 25.3 mph 32.2 mph N/A   Clear
4:53 PM 80.1 °F 30.9 °F 17% 29.82 in 10.0 mi West 24.2 mph 33.4 mph N/A   Clear
5:53 PM 75.9 °F 30.9 °F 19% 29.82 in 10.0 mi West 23.0 mph 28.8 mph N/A   Clear
6:53 PM 71.1 °F 28.9 °F 21% 29.82 in 10.0 mi West 21.9 mph - N/A   Clear
7:53 PM 68.0 °F 33.1 °F 27% 29.83 in 10.0 mi West 20.7 mph 28.8 mph N/A   Clear
8:53 PM 64.0 °F 37.9 °F 38% 29.83 in 8.0 mi WSW 28.8 mph 41.4 mph N/A   Clear
9:53 PM 62.1 °F 39.0 °F 43% 29.87 in 10.0 mi WSW 27.6 mph 40.3 mph N/A   Clear
10:53 PM 61.0 °F 39.0 °F 44% 29.88 in 10.0 mi WSW 27.6 mph 35.7 mph N/A   Clear
11:53 PM 61.0 °F 35.1 °F 38% 29.89 in 9.0 mi WNW 24.2 mph 40.3 mph N/A   Clear